Regional Weather Roundup
Issued by NWS

Home | Current Version | Previous Version | Graphics & Text | Print | Product List | Glossary On
Versions: 1 2 3 4 5 6 7 8 9 10 11 12 13 14 15 16 17 18 19 20 21 22 23 24 25 26 27 28 29 30 31 32 33 34 35 36 37 38 39 40 41 42 43 44 45 46 47 48 49 50
514
ASUS45 KBOU 210110
RWRCO

WEATHER ROUNDUP FOR COLORADO
NATIONAL WEATHER SERVICE DENVER/BOULDER CO
700 PM MDT FRI APR 20 2018

NOTE: "FAIR" INDICATES FEW OR NO CLOUDS BELOW 12000 FEET WITH NO
SIGNIFICANT WEATHER AND/OR OBSTRUCTIONS TO VISIBILITY.

COZ001>005-013-030-031-210200-
...NORTHWEST COLORADO...

CITY           SKY/WX    TMP DP  RH WIND       PRES   REMARKS
CRAIG          LGT RAIN  37  34  89 SW18      29.97S
HAYDEN         MIX PCPN  36  33  89 SW10      29.98S
MEEKER         LGT SNOW  33  31  92 CALM      30.02R FOG
RANGELY        RAIN      38  37  94 SW5       30.04R
RABBIT EARS PA SNOW      28  27  93 W12G17    29.99S VSB 1/4 WCI  18
STEAMBOAT SPGS CLOUDY    33  33 100 CALM      29.97S
WALDEN         CLOUDY    34  32  93 NE5       29.96R WCI  30
$$

COZ006>008-011-210200-
...WEST CENTRAL VALLEYS...

CITY           SKY/WX    TMP DP  RH WIND       PRES   REMARKS
GRAND JUNCTION LGT RAIN  46  34  62 NE9       30.02R
MONTROSE       CLOUDY    46  22  38 NW5       30.02R
EAGLE          CLOUDY    39  29  67 SW15      30.00S
RIFLE          LGT RAIN  37  36  96 CALM      30.04S FOG
DELTA          CLOUDY    51  26  38 CALM      30.00R
NUCLA          CLOUDY    50  19  29 W5        30.03R
$$

COZ017>023-064>068-210200-
...SOUTHWEST COLORADO...

CITY           SKY/WX    TMP DP  RH WIND       PRES   REMARKS
DURANGO        FAIR      46  20  35 W15G23    29.97S
CORTEZ         FAIR      43  31  62 NW17      30.03R
PAGOSA SPRINGS FAIR      43  13  29 W13       30.00R
TELLURIDE      CLOUDY    34  21  60 SW6       30.05S WCI  28
WOLF CREEK PAS CLOUDY    19  12  73 W8        30.09R WCI   9
$$

COZ009-010-012-014-032>034-037-058>063-210200-
...CENTRAL COLORADO...

CITY           SKY/WX    TMP DP  RH WIND       PRES   REMARKS
ASPEN          LGT SNOW  32  30  92 N8        30.00S FOG     WCI  25
BUENA VISTA    CLOUDY    37  19  48 W10G17    29.95S
COPPER MTN     NOT AVBL
BERTHOUD PASS  CLOUDY    21  10  63 SE8       30.02R WCI  12
COTTONWOOD PAS CLOUDY    34  21  60 W21G30    29.97R WCI  22
GUNNISON       CLOUDY    38  19  46 N12       29.98S
GRANBY         MOCLDY    38  35  86 NE7       29.94F
KREMMLING      CLOUDY    43  36  75 NW6       29.96S
LEADVILLE      FLURRIES  26  20  77 NW15G24   29.96R WCI  14
MONARCH PASS   CLOUDY    19  16  86 W24       30.10R WCI   2
SALIDA         FAIR      41  31  67 CALM      30.02S
SUNLIGHT       CLOUDY    21  19  93 SW10G20   30.06R FOG     WCI  10
WILKERSON PASS CLOUDY   N/A N/A N/A SW7       30.00S VSB<1/4
$$

COZ069>075-210200-
...SAN LUIS VALLEY/SANGRE DE CRISTO MOUNTAINS...

CITY           SKY/WX    TMP DP  RH WIND       PRES   REMARKS
ALAMOSA        FAIR      42  15  33 W23G30    29.95R
DEL NORTE      CLOUDY    36  20  51 NW14      29.98R
LA VETA PASS   CLOUDY    27  14  59 SW21G40   30.07R WCI  13
SAGUACHE       NOT AVBL
$$

COZ035-036-038>040-210200-
...NORTHERN COLORADO FRONT RANGE...

CITY           SKY/WX    TMP DP  RH WIND       PRES   REMARKS
DENVER INTL AP CLOUDY    38  34  85 SE23G32   29.97R
AURORA         CLOUDY    38  36  93 SE20G30   29.97S
FRONT RANGE AP CLOUDY    39  36  87 SE24G32   29.99R
ERIE MUNI ARPT CLOUDY    44  35  71 SE15G23   30.01R
BOULDER MUN AP MOCLDY    45  39  81 CALM      29.95R
CENTENNIAL     CLOUDY    39  35  86 S13G23    29.96R
BROOMFIELD     MOCLDY    43  37  81 SE9       29.97R
FORT COLLINS   LGT RAIN  42  35  76 SE21G28   29.99R
LONGMONT       CLOUDY    45  38  76 E15       29.98R
$$

COZ041-046-047-076>085-087-088-210200-
...PIKES PEAK/PALMER DIVIDE AND SOUTHERN FOOTHILLS...

CITY           SKY/WX    TMP DP  RH WIND       PRES   REMARKS
COLO. SPRINGS  FOG       35  34  96 E15       29.98R VSB 1   WCI  25
A. F. ACADEMY  FOG       34  33  99 S6        29.98R VSB 1/4 WCI  28
SCHRIEVER AFB  NOT AVBL
CHEYENNE MTN     N/A     32  32 100 CALM      29.94R
ELLICOTT       CLOUDY   N/A N/A N/A SE22G33   29.98R
FALCON         SNOW      32  32  99 E16       29.99S VSB<1/4 WCI  21
FORT CARSON    CLOUDY    37  35  94 E8        29.98R
LIMON          CLOUDY    33  33 100 SE22G32   30.02F FOG     WCI  21
MONUMENT HILL  FOG       32  32 100 SE14      29.98F VSB<1/4 WCI  22
CANON CITY     LGT RAIN  43  37  81 N15G23    29.96R
WALSENBURG     NOT AVBL
TRINIDAD       FAIR      43  35  73 E8        29.93R
$$

COZ042>045-048>051-090-091-210200-
...NORTHEAST COLORADO...

CITY           SKY/WX    TMP DP  RH WIND       PRES   REMARKS
GREELEY ARPT   CLOUDY    40  34  79 SE21G29   30.02R
AKRON          CLOUDY    36  35  96 SE24G35   30.05R
BURLINGTON     LGT RAIN  38  37  97 E16       30.10R FOG
WRAY           DRIZZLE   41  41 100 E14G21    30.11S
YUMA           LGT RAIN  36  36 100 SE20G25   30.09S
STERLING       NOT AVBL
HOLYOKE        DRIZZLE   41  37  87 E18       30.12R
FORT MORGAN    CLOUDY    37  32  81 SE14G20   30.07S
$$

COZ086-089-092>099-210200-
...SOUTHEAST COLORADO...

CITY           SKY/WX    TMP DP  RH WIND       PRES   REMARKS
PUEBLO         CLOUDY    46  36  68 E22G30    29.94R
LA JUNTA       FAIR      43  39  86 E28G37    29.97F
LAMAR          LGT RAIN  42  39  89 E13       30.05S FOG
SPRINGFIELD      N/A     40  40 100 N3        30.03R
$$




USA.gov is the U.S. government's official web portal to all federal, state and local government web resources and services.